Location: ????????
(55.7667°N, 37.4833°E)
Time: 14:24:30
(UTC+00:00)

Cosmos 2227 Rocket - Pass Details

Date: 19 May 2025
Orbit: 837 x 845 km, 71.0° (Epoch: 20 June)

Event Time Altitude Azimuth Distance (km) Brightness Sun altitude
Exits shadow 23:08:24 - 158° (SSE) 3,060 4.7 -11.2°
Reaches altitude 10° 23:10:27 10° 146° (SSE) 2,450 4.3 -11.1°
Maximum altitude 23:14:26 20° 101° (E) 1,840 4.1 -10.9°
Drops below altitude 10° 23:18:26 10° 56° (NE) 2,465 5.7 -10.6°
Sets 23:21:28 0° 40° (NE) 3,406 7.2 -10.4°
